Location: ??????
(36.0418°N, 43.6351°E)
Time: 03:37:13
(UTC+00:00)

Cosmos 883 Rocket - Pass Details

Date: 26 June 2021
Orbit: 950 x 996 km, 83.0° (Epoch: 27 July)

Event Time Altitude Azimuth Distance (km) Brightness Sun altitude
Rises 00:02:06 0° 349° (N) 3,630 8.0 -17.8°
Reaches altitude 10° 00:04:37 10° 346° (NNW) 2,680 7.2 -17.5°
Maximum altitude 00:10:37 60° 268° (W) 1,079 4.5 -16.6°
Enters shadow 00:15:04 19° 193° (SSW) 2,116 5.8 -16.0°
